Location: Beuvrequen
(50.8014°N, 1.6652°E)
Time: 22:08:23
(UTC+00:00)

Cosmos 2278 - Pass Details

Date: 16 October 2021
Orbit: 838 x 854 km, 71.1° (Epoch: 05 December)

Event Time Altitude Azimuth Distance (km) Brightness Sun altitude
Rises 19:28:34 0° 217° (SW) 3,390 7.1 -24.3°
Reaches altitude 10° 19:31:01 10° 220° (SW) 2,461 6.4 -24.7°
Maximum altitude 19:36:39 66° 303° (WNW) 925 4.0 -25.5°
Drops below altitude 10° 19:42:20 10° 26° (NNE) 2,487 6.1 -26.4°
Enters shadow 19:44:46 - 29° (NNE) 3,408 6.8 -26.7°
